Tracking 20370 objects as of 20-Feb-2020
HD Live streaming from Space Station
objects crossing your sky now
Track the group of recently launched Starlink satellites

COSMOS 1755

Track COSMOS 1755 now!
10-day predictions
COSMOS 1755 is classified as:


NORAD ID: 16765
Int'l Code: 1986-042H
Perigee: 1,430.6 km
Apogee: 1,476.8 km
Inclination: 74.0 °
Period: 114.8 minutes
Semi major axis: 7824 km
RCS: 0.6969 m2 (medium)
Launch date: June 6, 1986
Source: Commonwealth of Independent States (former USSR) (CIS)
Launch site: PLESETSK MISSILE AND SPACE COMPLEX (PKMTR)
aabbcc
Your satellite tracking list
Your tracking list is empty




NASA's NSSDC Master Catalog

Two Line Element Set (TLE):
1 16765U 86042H   20050.38727323 -.00000014 +00000-0 +11874-4 0  9998
2 16765 074.0201 020.9600 0029569 192.4543 281.4207 12.54300249543340
Source of the keplerian elements: AFSPC